Location: Pedro
(43.9050°N, 104.3408°W)
Time: 16:45:28
(UTC+00:00)

A-11 Canister half - Visible Passes

Search period start: 26 May 2022 00:00
Search period end: 05 June 2022 00:00
Orbit: 1513 x 1686 km, 47.2° (Epoch: 25 May)

Date Brightness Start Highest point End Pass type
(mag) Time Alt. Az. Time Alt. Az. Time Alt. Az.
02 Jun 10.9 10:22:09 10° SSE 10:27:40 17° SE 10:33:05 10° E visible
03 Jun 10.9 09:59:50 10° SSE 10:04:51 15° SE 10:09:46 10° E visible
04 Jun 10.9 09:37:37 10° SSE 09:42:02 14° ESE 09:46:22 10° E visible
